sat.trackr.live / text

‹ back to catalog

WILDFIRE 6

NORAD 57763 · 2023-133G

PAYLOAD ACTIVE UNKNOWN

§ Identity

Operator
Country
US
Launch date
2023-09-02
Launch site
AFWTR
Launch vehicle
Mass (kg)
RCS (m²)

External: N2YO · Heavens-Above · Gunter

§ Orbital elements

Epoch: 2026-09-21T17:30:07.133472Z

Period
103.91 min
Inclination
80.9915°
Eccentricity
0.0007521
Mean motion
13.85765775 rev/d
Perigee alt
938.0 km
Apogee alt
949.0 km
Semi-major
7,321.6 km
B*
4.3082e-5
RAAN
274.3851°
Arg perigee
116.6589°
Mean anomaly
243.5338°
Rev number
15,438

§ Raw data

WILDFIRE 61 57763U 23133G   26264.72924923  .00000060  00000+0  43082-4 0  99942 57763  80.9915 274.3851 0007521 116.6589 243.5338 13.85765775154386

JSON: /api/v1/satellites/57763 · /tle

For live sub-satellite position, see the globe view (requires WebGL).

§ Visibility from observer

Set your observer location to see the next 7 days of passes ≥ 10°. The values pass through the URL so the page stays shareable.

No JS? Fill the form by hand. The geolocation button needs JavaScript.